カタログに戻る

SL-14 DEB

運用中PO
NORAD 39985·DEBRIS·🇷🇺 Russia

打ち上げ Aug 18, 1987 から Plesetsk Cosmodrome

Loading…

次のパス (今後24時間)

TLE

最新Source: Space-Track

元期: Sep 13, 2026, 14:28 UTC

1 39985U 87068DM  26256.60344367  .00001255  00000-0  66106-3 0  9992
2 39985  82.5216   8.3795 0006208 316.0550  44.0132 14.13327624610934

AllMySatでSL-14 DEBをリアルタイム追跡

Download on the App Store